Temperature
18 15 14 14 13 16 16 16 15 15 12 11 10 11 11 11 9 9 9 10 10 11 11 10 9 8 7 7 6 6 5 5 4 4 3 3 2 1 1 0 -0 -1 -2 -2
15 15 16 16 16 16 16 16 15 14 13 12 10 11 11 11 9 10 10 11 12 12 11 10 9 8 8 7 7 6 6 5 5 4 3 3 2 1 1 0 -0 -1 -2 -3
17 16 17 17 16 16 16 15 15 15 14 12 12 11 12 12 10 10 11 12 13 13 12 12 10 9 9 8 8 7 6 5 4 4 3 2 2 1 1 0 -1 -1 -2 -3
17 16 16 16 16 16 15 15 15 15 13 11 12 11 12 12 11 9 11 12 13 14 13 12 12 11 10 10 8 7 6 5 4 4 3 2 2 1 1 0 -1 -1 -2 -3
16 16 16 15 16 16 15 15 14 14 13 11 11 11 12 12 12 11 11 14 15 16 15 14 13 13 12 10 9 8 6 5 4 3 3 2 2 1 0 -0 -1 -1 -2 -3
15 16 15 15 15 15 14 13 13 10 10 11 11 11 11 11 12 13 13 16 18 17 16 15 14 13 12 11 9 8 6 5 4 3 3 2 2 1 0 -0 -1 -1 -2 -3
15 15 15 15 15 14 13 12 13 13 11 11 13 12 13 13 11 13 15 18 19 18 17 16 14 13 12 11 10 8 7 5 4 3 3 2 2 1 0 -0 -1 -2 -2 -3
14 14 14 14 14 13 13 12 13 14 12 12 13 12 13 13 14 15 17 18 19 18 17 16 15 14 13 12 11 9 8 6 5 3 3 2 1 1 0 -1 -1 -2 -2 -3
14 14 14 14 14 14 14 12 11 11 11 11 11 11 12 13 13 13 15 16 18 18 17 16 16 15 13 12 11 10 8 7 5 4 3 2 1 1 0 -1 -1 -2 -3 -3
14 14 14 13 13 13 13 12 10 11 12 11 11 11 13 15 13 12 11 14 17 18 17 16 16 15 14 12 11 9 8 6 5 4 3 2 1 1 -0 -1 -1 -2 -3 -4
14 13 13 12 12 12 12 12 11 10 9 10 11 13 13 14 13 13 13 17 18 18 18 17 16 15 14 12 11 9 7 6 5 3 3 2 1 0 -0 -1 -1 -2 -3 -4
12 11 11 12 12 11 11 11 10 11 11 9 8 13 13 12 12 14 16 18 19 18 18 17 16 15 13 12 11 9 8 6 5 3 2 2 1 0 -0 -1 -2 -2 -3 -4
12 11 12 13 13 12 12 11 11 11 10 8 8 13 13 12 13 15 16 17 18 17 17 16 15 15 14 12 11 9 8 6 5 3 2 2 1 0 -0 -1 -2 -2 -3 -4
11 10 11 13 14 13 12 12 11 10 10 9 10 13 15 14 13 13 16 17 17 17 17 16 15 15 14 13 11 10 8 6 5 3 2 1 1 0 -0 -1 -2 -2 -3 -3
9 9 9 10 10 11 11 12 11 11 11 11 13 13 16 15 13 14 16 16 16 17 17 16 16 15 14 13 11 10 8 6 5 3 2 2 1 0 -1 -1 -2 -2 -3 -4
7 9 9 9 10 10 10 11 11 11 11 12 12 13 15 15 14 14 15 15 16 17 17 17 16 15 14 13 12 11 9 7 5 3 2 2 1 -0 -1 -1 -2 -2 -3 -4
6 7 8 8 9 10 10 12 12 10 9 10 12 13 13 12 11 13 15 16 16 17 17 17 16 15 15 14 13 11 10 8 5 4 2 2 1 -0 -1 -1 -2 -2 -3 -4
6 7 7 6 9 10 13 13 12 11 11 10 11 12 11 11 14 15 16 16 17 17 17 17 16 15 15 14 13 11 9 7 6 4 3 2 1 -0 -1 -1 -2 -2 -3 -3
7 8 7 6 7 8 11 12 11 10 11 11 11 12 12 13 12 15 18 18 18 17 17 16 15 15 14 13 12 11 9 7 6 4 3 2 1 0 -1 -1 -2 -2 -3 -3
6 7 7 6 7 8 12 13 13 12 11 13 11 11 12 11 10 13 18 17 17 16 16 15 15 14 14 13 12 10 9 8 6 5 4 2 1 0 -1 -1 -2 -2 -3 -3
5 5 5 6 6 8 10 11 12 13 13 16 15 15 14 11 13 16 17 16 16 16 15 15 14 14 13 12 11 10 9 8 8 5 3 2 1 -0 -1 -1 -2 -2 -3 -3
6 5 5 5 5 8 10 10 11 13 16 16 16 16 15 15 15 16 16 16 15 15 14 14 13 13 13 11 10 10 9 9 7 5 3 2 1 -0 -1 -2 -2 -2 -3 -3
7 8 8 8 10 12 12 13 15 15 15 16 15 15 15 14 15 15 15 14 14 14 13 13 13 12 12 11 10 9 9 7 6 4 3 2 1 -0 -1 -2 -2 -2 -3 -3
7 7 7 6 8 10 12 13 14 15 15 15 15 15 14 14 14 14 13 13 13 12 12 12 12 12 11 11 10 9 7 6 5 4 3 1 0 -0 -1 -2 -2 -2 -3 -3
9 7 6 7 8 11 13 15 15 15 14 14 14 13 13 13 12 12 12 12 11 11 11 11 11 11 11 10 9 8 7 5 4 3 2 1 0 -0 -1 -1 -2 -2 -2 -3
8 9 9 11 12 11 12 13 13 13 13 12 12 12 12 11 11 10 10 10 10 10 10 10 10 10 9 9 8 7 6 5 3 2 1 1 0 -0 -1 -1 -2 -2 -3 -3
Wind_Speed
2 3 4 8 8 5 4 4 6 6 5 8 12 16 16 10 12 13 13 14 17 20 16 13 14 14 14 14 14 14 11 10 7 4 3 2 3 3 4 6 7 7 6 7
4 4 6 5 5 4 3 4 5 4 4 7 8 14 14 10 11 13 16 18 19 17 13 13 14 15 17 18 17 15 13 12 9 5 4 3 3 3 5 6 6 6 7 7
6 5 3 3 3 3 3 4 4 3 3 4 6 11 8 5 6 9 11 12 14 19 18 16 18 19 18 19 19 17 15 13 11 9 5 3 1 1 2 3 4 6 7 8
4 3 3 3 4 4 4 2 1 1 2 5 2 5 9 6 6 9 14 14 16 17 17 17 18 19 21 20 17 15 15 13 11 11 7 7 6 5 5 4 4 7 7 7
5 4 5 6 5 5 4 1 1 1 1 4 3 4 10 3 8 12 14 17 19 17 16 17 20 22 20 17 16 15 14 13 11 10 10 8 7 6 4 4 5 5 7 8
5 3 4 5 1 2 3 4 4 5 4 4 6 7 8 6 9 10 10 14 17 16 15 15 14 14 14 13 14 14 15 14 13 12 11 10 10 8 7 6 6 5 4 6
5 4 2 3 2 2 4 4 3 4 2 7 4 5 11 11 11 11 11 13 14 13 12 12 13 15 16 17 18 16 17 15 14 13 12 11 11 10 10 8 7 6 4 4
4 7 5 4 6 5 5 6 5 4 5 6 5 8 10 8 8 9 10 9 9 10 11 13 15 17 17 19 19 18 18 15 15 14 12 11 10 8 7 8 7 7 6 6
5 6 1 2 2 5 4 6 7 5 3 6 8 9 11 6 6 6 7 7 11 11 11 12 12 14 16 19 21 21 19 16 15 14 12 11 10 9 9 8 7 6 6 8
6 6 4 1 1 2 3 5 5 4 3 6 8 7 7 8 10 11 10 12 14 12 11 11 12 14 15 17 17 16 17 17 14 14 12 11 10 10 9 7 8 8 7 9
4 5 4 1 7 8 6 5 5 4 4 5 6 9 8 10 11 12 14 14 14 14 14 14 13 13 13 12 14 16 16 15 14 14 12 10 10 9 8 8 8 8 7 7
4 4 5 9 5 5 8 8 9 5 6 6 5 11 10 11 11 11 12 12 11 12 11 11 11 11 12 15 15 17 16 16 15 14 12 11 10 9 9 9 8 7 7 7
5 4 4 7 2 2 5 6 7 5 3 5 6 11 6 6 8 9 10 11 11 11 10 9 9 12 15 16 17 17 17 16 14 13 12 11 10 10 10 9 8 7 7 7
5 5 8 9 7 5 6 6 8 8 6 8 13 19 20 14 10 10 11 12 11 11 10 10 11 13 15 15 16 17 17 16 14 14 13 13 13 12 10 9 8 8 7 7
5 6 8 10 11 8 10 14 12 15 14 15 17 19 29 19 10 10 11 11 11 11 11 12 14 14 14 15 16 16 16 16 15 15 15 15 12 10 9 9 8 7 7 8
5 5 4 7 8 8 10 18 19 19 16 19 22 24 28 14 7 10 12 12 12 13 13 13 14 14 16 18 18 17 17 17 16 16 16 13 11 11 10 9 8 7 7 7
7 7 4 6 6 7 10 15 16 9 10 12 18 21 16 11 12 11 11 11 12 14 14 14 14 16 17 18 18 19 19 16 16 16 14 13 13 12 11 10 9 8 8 7
10 7 4 4 3 10 11 5 7 10 13 14 15 16 13 12 9 9 11 13 15 14 14 13 12 14 15 15 15 14 14 15 17 16 15 14 13 13 11 10 10 9 7 7
6 8 5 3 5 11 12 10 6 8 10 12 16 19 17 8 7 10 12 11 14 15 13 12 11 11 11 13 13 13 14 15 16 17 17 16 15 14 12 12 11 9 7 7
3 4 5 5 5 9 11 4 3 3 9 9 9 12 10 1 3 8 10 8 10 12 11 11 9 8 10 11 12 15 17 17 20 20 18 16 15 14 14 13 11 8 7 8
5 4 7 9 9 12 11 3 5 4 9 5 4 7 6 7 10 10 10 10 12 13 13 11 9 9 11 10 13 16 17 21 20 16 15 14 15 14 13 11 9 8 8 7
12 10 9 8 8 13 8 8 10 11 5 5 6 7 9 11 13 14 14 15 14 14 13 11 10 12 9 10 15 17 21 19 14 14 15 15 15 13 12 11 10 8 8 7
10 11 9 14 13 7 7 12 8 4 7 9 9 12 12 13 15 16 14 15 14 14 13 10 10 11 9 12 16 20 18 13 14 16 16 15 14 13 12 12 11 8 7 7
7 6 6 9 12 12 12 11 13 13 15 16 15 15 14 16 17 17 15 14 13 13 12 10 9 11 12 12 17 18 11 13 16 16 16 14 14 13 12 10 10 9 8 7
9 6 7 12 10 10 12 11 12 13 13 14 15 14 13 13 15 15 14 13 12 12 11 9 10 13 14 11 15 14 11 15 16 16 15 15 14 13 12 12 11 11 9 9
9 11 14 21 15 13 15 13 14 14 15 15 14 13 11 10 12 12 12 11 11 12 11 10 11 12 13 10 13 13 13 16 17 16 15 13 12 12 11 10 9 15 13 15
Wind_Direction
95 84 214 219 205 216 219 236 264 265 188 188 234 259 269 214 216 227 222 219 222 227 223 207 198 188 182 181 181 180 178 176 164 159 167 185 226 248 266 266 253 251 265 283
36 256 226 189 199 225 241 273 275 284 194 206 266 274 269 220 211 219 220 222 225 229 223 210 197 190 190 188 187 185 183 179 176 172 168 175 190 224 242 248 249 256 271 285
231 241 194 190 226 251 272 246 256 286 343 270 306 301 282 246 224 232 228 226 226 226 224 213 203 199 196 195 191 190 186 181 179 171 158 159 166 258 252 244 247 259 275 283
249 233 201 210 238 199 258 216 201 326 352 295 235 294 289 265 260 245 237 232 233 230 225 215 208 204 203 200 192 187 183 181 178 171 170 174 192 211 223 222 234 262 273 278
264 209 209 228 233 192 217 168 146 85 151 307 244 217 282 282 264 255 240 233 235 231 222 217 211 208 204 195 189 185 181 181 178 177 179 182 200 212 224 231 246 255 266 273
244 226 210 215 189 158 119 63 58 51 68 290 224 188 273 234 221 242 241 231 232 230 222 220 212 200 194 186 185 183 183 186 183 183 184 188 199 209 220 232 242 248 251 264
292 268 231 160 156 90 96 82 359 329 329 255 236 212 249 243 222 218 228 232 230 223 215 213 202 196 192 187 188 187 187 189 187 188 192 195 199 204 214 224 231 237 245 250
286 286 231 200 194 185 184 151 175 238 254 286 287 238 253 258 249 234 239 246 241 226 216 212 206 199 195 192 190 189 192 192 189 193 198 198 199 201 212 218 219 226 232 241
221 266 226 171 167 175 194 201 177 163 269 272 271 276 296 252 257 237 240 249 245 235 224 218 207 199 195 193 194 193 192 193 193 195 195 198 200 203 211 216 219 226 233 250
189 261 274 217 58 250 203 150 114 155 243 272 285 272 254 262 242 239 241 244 247 243 237 226 212 204 200 198 194 192 193 195 194 194 196 202 202 206 209 212 221 228 237 248
181 220 284 276 212 203 174 192 182 177 188 200 273 273 229 239 233 224 232 236 240 238 232 227 218 207 198 190 191 194 196 195 194 196 197 199 199 202 206 215 224 228 235 242
168 152 260 253 238 196 190 198 166 184 232 207 227 270 258 247 250 231 237 242 243 241 236 227 213 196 194 196 196 198 198 199 199 195 194 199 199 200 208 219 226 227 234 239
150 142 307 323 312 216 229 220 195 176 170 199 215 264 282 277 268 254 253 260 261 256 247 230 208 203 204 203 202 202 201 202 197 191 194 198 201 205 213 220 225 227 233 240
127 180 202 231 239 199 230 232 200 180 209 231 232 255 274 270 268 270 264 261 263 256 245 230 220 216 212 208 205 203 204 200 194 192 195 202 207 208 213 216 221 226 231 242
144 222 238 254 259 248 246 249 225 214 219 230 249 251 265 272 256 256 262 268 267 260 248 235 229 224 216 212 209 206 204 199 195 194 200 208 206 204 207 213 219 225 233 246
167 217 256 274 265 254 260 258 245 236 234 240 255 266 266 278 264 263 267 265 262 259 254 245 234 226 220 216 212 207 205 199 194 197 203 203 197 201 208 213 217 225 236 245
183 186 210 268 299 330 273 248 235 220 216 214 241 253 273 282 267 263 265 259 255 261 262 253 239 230 225 218 210 208 204 194 194 199 200 197 197 203 209 213 217 226 234 244
165 166 192 271 341 246 247 251 220 227 245 228 243 259 268 256 268 267 257 257 265 265 264 259 246 235 228 218 209 204 192 191 195 199 199 196 196 204 206 209 219 227 230 239
164 160 181 208 254 274 287 276 214 213 273 239 238 257 266 278 313 290 265 242 246 255 258 258 249 237 225 211 199 188 191 193 198 201 200 198 196 200 204 212 220 223 226 238
97 134 173 189 220 249 253 243 143 135 285 264 219 245 265 105 300 279 277 273 263 264 265 264 259 237 224 208 182 187 196 198 205 205 201 195 195 199 205 213 215 215 221 236
156 182 201 215 232 259 258 217 141 202 253 286 217 240 245 210 234 259 284 285 278 277 274 268 254 239 231 195 180 197 202 209 209 198 192 191 194 200 204 207 210 212 221 231
181 183 201 189 211 253 229 156 193 226 271 294 282 265 259 258 268 276 281 281 283 282 279 267 253 250 230 188 189 205 214 212 193 185 188 191 193 196 200 203 208 209 214 228
204 200 202 201 221 251 190 209 239 284 283 279 280 283 282 280 281 283 283 283 285 281 279 268 253 255 234 201 201 215 219 194 182 185 190 191 191 194 195 197 203 205 209 220
238 221 226 249 258 263 264 260 266 264 263 272 276 280 282 280 283 287 288 288 288 286 283 277 263 255 247 218 214 223 208 180 182 188 191 190 191 194 196 199 202 205 207 213
227 210 239 260 270 285 267 258 265 275 278 280 282 280 277 278 281 283 289 290 289 289 288 279 262 258 256 231 221 219 194 180 187 191 191 191 192 193 196 201 206 206 208 206
219 230 249 266 271 271 281 281 283 286 289 291 294 297 295 284 285 292 293 292 294 295 295 290 276 267 264 242 227 213 195 188 189 192 193 192 191 192 194 198 209 220 216 224
Height
1567 1571 1574 1572 1572 1570 1570 1572 1572 1568 1566 1570 1569 1561 1552 1552 1554 1552 1551 1551 1551 1550 1553 1555 1556 1557 1558 1558 1559 1560 1561 1562 1563 1563 1562 1560 1558 1556 1554 1551 1549 1546 1543 1540
1571 1572 1566 1565 1566 1567 1568 1570 1569 1567 1565 1568 1566 1558 1546 1544 1544 1543 1543 1543 1544 1545 1547 1548 1550 1550 1550 1551 1552 1553 1555 1556 1557 1557 1557 1555 1554 1552 1550 1547 1544 1542 1539 1536
1568 1566 1564 1565 1566 1567 1567 1568 1568 1567 1566 1565 1567 1558 1544 1538 1539 1538 1538 1538 1538 1538 1539 1541 1542 1542 1543 1543 1544 1546 1548 1550 1551 1551 1551 1550 1548 1547 1545 1543 1540 1538 1535 1532
1565 1563 1564 1565 1565 1564 1569 1565 1565 1566 1571 1574 1568 1573 1546 1538 1537 1533 1531 1531 1530 1531 1532 1533 1534 1535 1535 1535 1538 1540 1542 1543 1544 1545 1545 1544 1543 1541 1540 1538 1536 1533 1530 1527
1565 1563 1564 1565 1563 1562 1563 1563 1565 1566 1570 1574 1570 1573 1550 1538 1536 1528 1523 1522 1522 1524 1525 1526 1526 1527 1528 1530 1531 1533 1535 1536 1537 1538 1539 1538 1537 1536 1535 1533 1531 1528 1526 1523
1562 1561 1561 1561 1560 1561 1562 1566 1568 1573 1576 1578 1566 1571 1555 1538 1527 1519 1515 1515 1516 1517 1519 1520 1521 1522 1522 1523 1524 1526 1527 1529 1530 1531 1532 1532 1531 1530 1529 1527 1525 1523 1521 1518
1564 1561 1559 1559 1561 1563 1565 1573 1578 1575 1581 1573 1557 1559 1542 1518 1514 1510 1509 1509 1510 1512 1513 1514 1514 1514 1515 1515 1516 1518 1519 1521 1523 1524 1525 1525 1525 1524 1523 1521 1520 1518 1515 1513
1571 1568 1559 1558 1559 1563 1565 1569 1579 1579 1579 1571 1555 1553 1527 1510 1506 1505 1506 1506 1507 1507 1508 1508 1508 1508 1508 1508 1509 1510 1511 1513 1516 1517 1518 1519 1518 1517 1516 1515 1514 1512 1510 1507
1568 1566 1557 1556 1557 1559 1561 1566 1566 1575 1574 1575 1561 1544 1522 1506 1504 1503 1502 1502 1502 1502 1502 1502 1502 1502 1502 1502 1502 1503 1504 1506 1508 1510 1512 1512 1512 1511 1510 1509 1508 1506 1504 1501
1561 1566 1558 1557 1557 1557 1558 1561 1571 1574 1576 1575 1562 1548 1529 1507 1504 1501 1500 1498 1496 1497 1497 1496 1496 1495 1495 1495 1496 1497 1498 1500 1502 1503 1504 1505 1505 1505 1504 1503 1502 1500 1498 1496
1559 1565 1561 1559 1559 1557 1560 1561 1563 1569 1573 1575 1568 1539 1509 1502 1496 1495 1493 1492 1491 1491 1491 1490 1490 1489 1489 1489 1489 1490 1491 1492 1493 1495 1497 1498 1498 1498 1497 1497 1496 1494 1492 1490
1558 1565 1566 1557 1551 1550 1553 1553 1559 1565 1563 1567 1568 1534 1496 1495 1490 1489 1488 1488 1487 1487 1486 1485 1484 1483 1482 1482 1481 1482 1482 1483 1485 1488 1489 1490 1491 1491 1490 1490 1490 1488 1486 1484
1558 1564 1566 1556 1555 1552 1550 1549 1551 1553 1557 1564 1563 1526 1493 1490 1488 1487 1486 1485 1483 1482 1481 1479 1478 1476 1475 1474 1474 1473 1474 1475 1478 1480 1481 1482 1483 1484 1484 1484 1483 1482 1480 1478
1555 1561 1562 1557 1549 1546 1546 1545 1545 1549 1554 1553 1539 1513 1492 1487 1487 1484 1483 1481 1479 1477 1475 1473 1471 1469 1468 1467 1466 1465 1465 1467 1469 1471 1473 1474 1475 1477 1477 1478 1477 1476 1474 1472
1554 1559 1556 1550 1544 1544 1541 1537 1537 1538 1533 1531 1513 1506 1485 1478 1482 1480 1478 1475 1473 1470 1468 1466 1464 1462 1460 1459 1457 1456 1457 1459 1461 1462 1464 1466 1468 1470 1470 1471 1470 1470 1468 1466
1553 1555 1552 1547 1539 1540 1538 1527 1523 1521 1519 1514 1505 1494 1474 1476 1477 1475 1472 1470 1467 1465 1462 1460 1458 1455 1453 1450 1449 1448 1448 1449 1452 1453 1455 1459 1461 1462 1463 1464 1464 1463 1462 1460
1551 1554 1553 1550 1541 1537 1532 1511 1508 1510 1505 1503 1499 1483 1472 1475 1472 1470 1467 1465 1462 1459 1457 1454 1451 1448 1446 1443 1442 1440 1440 1441 1442 1444 1447 1450 1452 1454 1456 1457 1457 1456 1456 1455
1545 1550 1553 1553 1543 1541 1510 1496 1496 1498 1492 1490 1484 1475 1471 1468 1467 1465 1462 1460 1456 1454 1452 1449 1445 1442 1439 1437 1434 1433 1432 1432 1433 1435 1438 1441 1444 1446 1448 1449 1449 1450 1449 1448
1537 1542 1549 1553 1547 1530 1509 1493 1492 1495 1489 1476 1475 1469 1465 1464 1465 1459 1457 1455 1452 1450 1447 1443 1440 1436 1432 1429 1427 1425 1423 1423 1424 1425 1428 1432 1435 1438 1440 1441 1442 1443 1443 1442
1538 1538 1545 1550 1546 1532 1501 1488 1487 1490 1488 1467 1467 1465 1463 1465 1468 1458 1453 1451 1448 1445 1441 1437 1432 1428 1424 1421 1419 1416 1414 1413 1413 1415 1419 1424 1427 1430 1432 1434 1436 1437 1436 1436
1540 1542 1543 1541 1539 1515 1491 1486 1488 1494 1481 1465 1463 1462 1461 1461 1458 1451 1448 1445 1442 1438 1434 1429 1424 1419 1416 1413 1410 1406 1405 1403 1405 1408 1412 1415 1419 1422 1425 1428 1429 1430 1430 1429
1524 1533 1535 1533 1535 1512 1479 1484 1484 1474 1464 1463 1461 1460 1458 1454 1450 1446 1441 1437 1433 1429 1425 1421 1415 1410 1407 1404 1400 1397 1394 1395 1397 1399 1402 1406 1411 1414 1417 1420 1422 1423 1423 1423
1511 1506 1504 1503 1491 1477 1474 1472 1468 1467 1464 1460 1458 1455 1453 1448 1443 1438 1434 1429 1425 1421 1416 1412 1406 1401 1398 1394 1390 1387 1386 1388 1388 1390 1393 1397 1402 1406 1409 1412 1414 1416 1416 1416
1498 1495 1495 1492 1479 1473 1470 1468 1465 1464 1460 1456 1453 1450 1446 1441 1436 1431 1426 1421 1417 1412 1408 1403 1398 1392 1388 1385 1381 1379 1379 1379 1380 1382 1385 1389 1394 1397 1401 1404 1407 1408 1409 1409
1490 1490 1488 1480 1472 1469 1463 1462 1460 1458 1455 1451 1447 1443 1439 1434 1429 1424 1419 1414 1409 1404 1400 1395 1389 1384 1379 1376 1372 1371 1370 1370 1371 1373 1376 1380 1384 1389 1393 1396 1399 1401 1402 1403
1481 1482 1480 1468 1465 1464 1458 1458 1456 1451 1447 1443 1439 1434 1431 1428 1422 1417 1412 1407 1402 1397 1392 1387 1381 1376 1371 1367 1363 1362 1361 1361 1361 1363 1366 1370 1375 1379 1384 1388 1391 1393 1396 1397